STARLINK-3910 (52586 NORAD) Tracking and Keplerian Element Data
This shows tracking and keplerian element data for the satellite.
Feedback or suggestion? Click here.
Element | Value |
Catalog | 52586 |
Name | STARLINK-3910 |
Epoch Orbit | 130 |
Epoch Day | 167.08334491 |
Epoch Year | 2022 |
RAAN | 128.9735 |
Inclination | 53.2162 |
Eccentricity | 0.0002457 |
Argument of Perigee | 18.4578 |
Mean Anonmoly | 59.428 |
Mean Motion | 15.73361702 |
Decay Rate | -0.0013531 |
L1 | 1 52586U 22051BC 22167.08334491 -.00135310 00000+0 -96829-3 0 9997 |
L2 | 2 52586 53.2162 128.9735 0002457 18.4578 59.4280 15.73361702 1300 |
Live tracking and technical data element details for STARLINK-3910 (NORAD 52586). STARLINK-3910 can be tracked NOW for your location showing map with azimuth and elevation plus other details from your city location.
Track the satellite on the map from your city or location and see movement details for azimuth, elevation, latitude, longitude, range, height, and movement on the map or in text.
IsCatalogInMostPopularTable: catalog: 52586, numindb: 3
Update: records affected: 1
GetName: 52586 STARLINK-3910
Hit Count: updated at: Mon, 27 Jun 2022 06:19:44 GMT